Location: Newark
(52.4787°S, 179.0532°W)
Time: 17:10:32
(UTC+00:00)

DELFI C3 - Visible Passes

Search period start: 12 December 2019 00:00
Search period end: 22 December 2019 00:00
Orbit: 537 x 552 km, 97.4° (Epoch: 12 December)

Date Brightness Start Highest point End Pass type
(mag) Time Alt. Az. Time Alt. Az. Time Alt. Az.
12 Dec ? 09:52:59 10° S 09:56:38 35° WSW 10:00:15 10° NW visible
13 Dec ? 09:46:54 10° S 09:50:38 39° WSW 09:54:21 10° NW visible
14 Dec ? 09:40:49 10° S 09:44:38 45° WSW 09:48:26 10° NW visible
15 Dec ? 09:34:44 10° S 09:38:38 51° WSW 09:42:30 10° NNW visible
16 Dec ? 09:28:41 10° S 09:32:37 59° WSW 09:36:32 10° NNW visible
17 Dec ? 09:22:37 10° S 09:26:37 68° WSW 09:30:33 10° NNW visible
17 Dec ? 10:59:39 10° SW 11:00:29 11° SW 11:01:19 10° WSW visible
18 Dec ? 09:16:34 10° SSE 09:20:35 78° WSW 09:24:33 10° NNW visible
18 Dec ? 10:53:03 10° SSW 10:54:31 12° SW 10:56:00 10° WSW visible
19 Dec ? 09:10:31 10° SSE 09:14:33 88° WSW 09:18:32 10° NNW visible
19 Dec ? 10:46:39 10° SSW 10:48:34 13° SW 10:50:29 10° W visible
20 Dec ? 09:04:28 10° SSE 09:08:30 81° ENE 09:12:30 10° NNW visible
20 Dec ? 10:40:21 10° SSW 10:42:36 15° WSW 10:44:51 10° W visible
21 Dec ? 10:34:05 10° SSW 10:36:38 16° WSW 10:39:09 10° W visible
